Terug naar catalogus

ERS 26

OV5-6

LostWetenschapHEO
NORAD 3951·PAYLOAD·🇺🇸 United States

Gelanceerd May 23, 1969 vanaf Cape Canaveral Space Force Station

Loading…

Volgende Passages (komende 24 uur)

TLE

VerouderdSource: Space-Track

Epoch: Apr 30, 1971, 04:22 UTC

1 03951U 69046B   71120.18240740 -.00000433  00000-0  10000-3 0  9995
2 03951  32.9470 146.6540 6908899 208.7530 240.4898  0.46230172  3345

Volg ERS 26 in realtime met AllMySat

Download on the App Store